Weather History for KSPG - May, 2013

Change the Weather History Date:

Wednesday, May 8, 2013

  Actual Average Record
Temperature  
Mean Temperature 72 °F -  
Max Temperature 78 °F 85 °F 92 °F (1975)
Min Temperature 70 °F 70 °F 57 °F (1992)
Cooling Degree Days 8    
Growing Degree Days 22 (Base 50)    
Moisture  
Dew Point 60 °F    
Average Humidity 63    
Maximum Humidity 76    
Minimum Humidity 50    
Precipitation  
Precipitation 0.00 in - - ()
Sea Level Pressure  
Sea Level Pressure 30.09 in    
Wind  
Wind Speed 4 mph (WNW)    
Max Wind Speed 13 mph    
Max Gust Speed 20 mph    
Visibility 10 miles    
Events      
Averages and records for this station are not official NWS values.
T = Trace of Precipitation, MM = Missing Value Source: NWS Daily Summary

Daily Weather History Graph

Daily Weather History Graph

Search for Another Location

Airport or City:

Trip Planner

Search our weather history database for the weather conditions in past years. The results will help you decide how hot, cold, wet, or windy it might be!

Date:

Astronomy

May. 08, 2013 Rise Set
Actual Time 6:45 AM EDT 8:08 PM EDT
Civil Twilight 6:20 AM EDT 8:33 PM EDT
Nautical Twilight 5:50 AM EDT 9:03 PM EDT
Astronomical Twilight 5:19 AM EDT 9:35 PM EDT
Moon 5:46 AM EDT (5/8) 7:09 PM EDT (5/8)
Length of Visible Light 14h 13m
Length of Day
13h 23m
Waning Crescent, 2% of the Moon is Illuminated
May 8
Waning Crescent
May 9
New
May 18
First Quarter
May 25
Full
May 31
Last Quarter

Hourly Weather History & Observations

Time (EDT) Temp. Dew Point Humidity Pressure Visibility Wind Dir Wind Speed Gust Speed Precip Events Conditions
12:53 AM 70.0 °F 61.0 °F 73% 30.06 in 10.0 mi Calm Calm - N/A   Clear
1:53 AM 70.0 °F 62.1 °F 76% 30.05 in 10.0 mi Calm Calm - N/A   Clear
2:53 AM 70.0 °F 61.0 °F 73% 30.04 in 10.0 mi WSW 3.5 mph - N/A   Clear
3:53 AM 70.0 °F 60.1 °F 71% 30.04 in 10.0 mi West 3.5 mph - N/A   Clear
4:53 AM 71.1 °F 57.9 °F 63% 30.04 in 10.0 mi NW 4.6 mph - N/A   Clear
5:53 AM 71.1 °F 59.0 °F 66% 30.05 in 10.0 mi NW 3.5 mph - N/A   Clear
6:53 AM 70.0 °F 59.0 °F 68% 30.07 in 10.0 mi NNW 3.5 mph - N/A   Clear
7:53 AM 71.1 °F 57.9 °F 63% 30.10 in 10.0 mi NNW 3.5 mph - N/A   Clear
8:53 AM 73.0 °F 59.0 °F 61% 30.11 in 10.0 mi North 4.6 mph - N/A   Clear
9:53 AM 75.0 °F 57.9 °F 55% 30.12 in 10.0 mi NNW 5.8 mph - N/A   Partly Cloudy
10:53 AM 75.0 °F 55.0 °F 50% 30.13 in 10.0 mi Calm Calm - N/A   Clear
11:53 AM 75.0 °F 55.9 °F 51% 30.13 in 10.0 mi Variable 6.9 mph - N/A   Partly Cloudy
12:53 PM 75.9 °F 57.9 °F 54% 30.12 in 10.0 mi West 9.2 mph 19.6 mph N/A   Clear
1:53 PM 75.9 °F 57.9 °F 54% 30.11 in 10.0 mi West 12.7 mph - N/A   Clear
2:53 PM 75.9 °F 59.0 °F 56% 30.12 in 10.0 mi WNW 10.4 mph - N/A   Clear
3:53 PM 75.9 °F 59.0 °F 56% 30.10 in 10.0 mi WNW 11.5 mph 19.6 mph N/A   Partly Cloudy
4:53 PM 75.9 °F 60.1 °F 58% 30.09 in 10.0 mi West 12.7 mph - N/A   Partly Cloudy
5:53 PM 75.9 °F 60.1 °F 58% 30.09 in 10.0 mi West 11.5 mph - N/A   Partly Cloudy
6:53 PM 75.0 °F 61.0 °F 62% 30.09 in 10.0 mi WNW 10.4 mph - N/A   Partly Cloudy
7:53 PM 73.9 °F 62.1 °F 66% 30.10 in 10.0 mi West 8.1 mph - N/A   Partly Cloudy
8:53 PM 73.9 °F 62.1 °F 66% 30.11 in 10.0 mi WNW 5.8 mph - N/A   Clear
9:53 PM 73.0 °F 62.1 °F 68% 30.12 in 10.0 mi Calm Calm - N/A   Clear
10:53 PM 73.0 °F 63.0 °F 71% 30.13 in 10.0 mi NNW 4.6 mph - N/A   Clear
11:53 PM 73.0 °F 62.1 °F 68% 30.14 in 10.0 mi NNW 4.6 mph - N/A   Clear